Time [UTC],Temp 1.4 m [�C],Temp 0.1m [�C],Temp Ground [�C],Lux,RH%,Wind [m/s],Time [UTC -6h]
2017-08-21 13:27:05,14.4,13.9,12.4,5253,45,0,21.08.17 07:27:05
2017-08-21 13:37:04,5.2,4.7,4.7,6479,71,0,21.08.17 07:37:04
2017-08-21 13:47:04,4.9,4.6,4.9,7323,69,0,21.08.17 07:47:04
2017-08-21 13:57:04,6.4,6.1,6.3,9166,65,0,21.08.17 07:57:04
2017-08-21 14:07:04,7,6.8,7.1,9936,64,0,21.08.17 08:07:04
2017-08-21 14:17:04,7.7,7.5,7.3,10419,61,0,21.08.17 08:17:04
2017-08-21 14:27:04,8.2,8.1,8.8,9387,60,0,21.08.17 08:27:04
2017-08-21 14:37:04,9.3,9.2,9.7,29279,54,0,21.08.17 08:37:04
2017-08-21 14:47:04,9.4,9.4,8.7,9983,55,0,21.08.17 08:47:04
2017-08-21 14:57:04,9.8,10.5,11,42914,54,0,21.08.17 08:57:04
2017-08-21 15:07:04,12.2,13.7,13.2,64287,49,0,21.08.17 09:07:04
2017-08-21 15:17:04,11.5,12.2,16.2,61975,49,0,21.08.17 09:17:04
2017-08-21 15:17:18,11.7,12.2,16.5,10566,47,0,21.08.17 09:17:18
2017-08-21 15:27:18,11.3,10.8,11.1,8164,48,0,21.08.17 09:27:18
2017-08-21 15:28:18,11.5,11.2,11.8,7849,48,0,21.08.17 09:28:18
2017-08-21 15:29:18,11.7,11.4,11.9,6934,47,0,21.08.17 09:29:18
2017-08-21 15:30:18,11.8,11.6,12,6516,47,0,21.08.17 09:30:18
2017-08-21 15:31:18,11.7,11.6,11.8,6770,48,0,21.08.17 09:31:18
2017-08-21 15:32:18,11.9,11.7,12,7501,47,0,21.08.17 09:32:18
2017-08-21 15:33:18,12,11.9,12.1,6971,47,0,21.08.17 09:33:18
2017-08-21 15:34:18,12.3,12.2,12.6,8137,46,0,21.08.17 09:34:18
2017-08-21 15:35:18,12.4,12.3,12.2,7571,47,0,21.08.17 09:35:18
2017-08-21 15:36:18,12.5,12.4,12.5,6951,46,0,21.08.17 09:36:18
2017-08-21 15:37:18,12.6,12.5,12.6,7135,46,0,21.08.17 09:37:18
2017-08-21 15:38:18,12.7,12.5,12.8,7829,46,0,21.08.17 09:38:18
2017-08-21 15:39:18,12.9,12.7,13,9199,45,0,21.08.17 09:39:18
2017-08-21 15:40:18,12.9,12.8,12.8,6117,46,0,21.08.17 09:40:18
2017-08-21 15:41:18,12.8,12.7,12.4,7246,47,0,21.08.17 09:41:18
2017-08-21 15:42:18,12.5,12.4,11.9,7926,44,0,21.08.17 09:42:18
2017-08-21 15:43:18,12.3,12.2,11.8,7290,47,0,21.08.17 09:43:18
2017-08-21 15:44:18,12.5,12.7,15.2,69647,46,0,21.08.17 09:44:18
2017-08-21 15:45:18,13.5,14.2,18.2,97050,43,0,21.08.17 09:45:18
2017-08-21 15:46:18,14.4,15,18.9,84119,41,0,21.08.17 09:46:18
2017-08-21 15:47:18,15,15.5,20.3,83884,41,0,21.08.17 09:47:18
2017-08-21 15:48:18,14.9,16,19.8,84822,42,0,21.08.17 09:48:18
2017-08-21 15:49:18,15.4,16.5,19.6,85291,42,0,21.08.17 09:49:18
2017-08-21 15:50:18,15.2,16.9,19.4,85928,43,0,21.08.17 09:50:18
2017-08-21 15:51:18,15.2,16.9,19.8,82444,42,0,21.08.17 09:51:18
2017-08-21 15:51:38,15.5,17.2,19.4,81204,41,0,21.08.17 09:51:38
2017-08-21 15:52:39,15.7,18.2,22.4,81539,42,0,21.08.17 09:52:39
2017-08-21 15:53:39,15.6,20.2,26.7,81874,42,0,21.08.17 09:53:39
2017-08-21 15:54:39,16.2,21.5,28.2,81841,39,0,21.08.17 09:54:39
2017-08-21 15:55:39,17,22.6,30.4,81908,39,0,21.08.17 09:55:39
2017-08-21 15:56:39,16.5,22.5,27.8,81539,41,0,21.08.17 09:56:39
2017-08-21 15:57:39,16,21.5,24,82243,41,0,21.08.17 09:57:39
2017-08-21 15:58:39,16.5,22.4,26.2,83851,38,0,21.08.17 09:58:39
2017-08-21 15:59:39,16.8,22.7,27.1,81506,37,0,21.08.17 09:59:39
2017-08-21 16:00:39,17.2,22.9,24.8,83549,37,0,21.08.17 10:00:39
2017-08-21 16:01:29,17.5,23.2,23.9,83348,35,0,21.08.17 10:01:29
2017-08-21 16:02:30,18,23.6,23.4,86263,35,0,21.08.17 10:02:30
2017-08-21 16:03:30,18,23,22.4,84521,35,0,21.08.17 10:03:30
2017-08-21 16:04:30,18,22.3,20.7,85425,35,0,21.08.17 10:04:30
2017-08-21 16:05:30,18,21.7,20.7,85425,34,0,21.08.17 10:05:30
2017-08-21 16:06:30,18.5,22,22.1,85928,34,0,21.08.17 10:06:30
2017-08-21 16:07:30,18.7,22.5,22.2,83214,36,0,21.08.17 10:07:30
2017-08-21 16:08:30,18.2,22.9,22.7,85392,36,0,21.08.17 10:08:30
2017-08-21 16:09:30,18.2,23.2,22.9,85760,36,0,21.08.17 10:09:30
2017-08-21 16:10:30,18.3,23.7,23.4,86062,36,0,21.08.17 10:10:30
2017-08-21 16:11:30,18.3,24.2,23.6,86397,36,0,21.08.17 10:11:30
2017-08-21 16:12:30,18.3,24.4,23.7,85626,34,0,21.08.17 10:12:30
2017-08-21 16:13:30,18.2,24.2,22.5,85995,36,0,21.08.17 10:13:30
2017-08-21 16:14:30,18.5,23.6,22.2,86129,34,0,21.08.17 10:14:30
2017-08-21 16:14:47,18.5,23.5,21.7,85894,33,0,21.08.17 10:14:47
2017-08-21 16:14:57,18.6,23.2,21.4,85861,33,0,21.08.17 10:14:57
2017-08-21 16:15:07,18.7,23.2,21.2,85961,34,0,21.08.17 10:15:07
2017-08-21 16:15:17,18.7,23,21.1,86196,34,0,21.08.17 10:15:17
2017-08-21 16:15:27,18.8,23,21.1,86631,34,0,21.08.17 10:15:27
2017-08-21 16:15:39,18.9,23.1,21.2,86296,33,0,21.08.17 10:15:39
2017-08-21 16:15:49,19,23,21.1,86497,33,0,21.08.17 10:15:49
2017-08-21 16:15:59,19.1,23,21.1,86598,32,0,21.08.17 10:15:59
2017-08-21 16:16:09,19.2,23,21.1,86363,33,0,21.08.17 10:16:09
2017-08-21 16:16:19,19.4,23,21.2,86397,33,0,21.08.17 10:16:19
2017-08-21 16:16:29,19.4,23,21.3,86665,33,0,21.08.17 10:16:29
2017-08-21 16:16:39,19.5,23,21.4,86698,33,0,21.08.17 10:16:39
2017-08-21 16:16:49,19.7,23.2,21.6,86598,33,0,21.08.17 10:16:49
2017-08-21 16:16:59,19.7,23.2,21.9,86564,33,0,21.08.17 10:16:59
2017-08-21 16:17:09,19.7,23.4,22.3,86899,33,0,21.08.17 10:17:09
2017-08-21 16:17:19,19.8,23.5,22.6,86832,33,0,21.08.17 10:17:19
2017-08-21 16:17:29,19.9,23.7,22.8,86531,34,0,21.08.17 10:17:29
2017-08-21 16:17:39,19.9,23.7,23.1,86263,33,0,21.08.17 10:17:39
2017-08-21 16:17:49,19.9,23.8,23.2,86162,33,0,21.08.17 10:17:49
2017-08-21 16:17:59,19.9,23.9,23.4,86531,33,0,21.08.17 10:17:59
2017-08-21 16:18:09,19.9,24,23.5,86430,33,0,21.08.17 10:18:09
2017-08-21 16:18:19,19.6,24.2,23.7,86732,34,0,21.08.17 10:18:19
2017-08-21 16:18:29,19.2,24.3,23.7,86832,36,0,21.08.17 10:18:29
2017-08-21 16:18:39,19,24.4,23.8,85191,37,0,21.08.17 10:18:39
2017-08-21 16:18:49,18.7,24.5,23.9,85023,37,0,21.08.17 10:18:49
2017-08-21 16:18:59,18.5,24.5,24,86028,37,0,21.08.17 10:18:59
2017-08-21 16:19:09,18.5,24.6,24.1,85023,36,0,21.08.17 10:19:09
2017-08-21 16:19:19,18.6,24.6,24.1,84253,36,0,21.08.17 10:19:19
2017-08-21 16:19:29,18.7,24.5,24.1,20100,35,0,21.08.17 10:19:29
2017-08-21 16:19:39,18.7,24.5,24,85526,34,0,21.08.17 10:19:39
2017-08-21 16:19:49,18.8,24.3,24,86531,34,0,21.08.17 10:19:49
2017-08-21 16:19:59,18.8,24,23.8,86430,33,0,21.08.17 10:19:59
2017-08-21 16:20:09,18.7,24,23.8,86464,33,0,21.08.17 10:20:09
2017-08-21 16:20:19,18.7,24.1,23.9,85928,34,0,21.08.17 10:20:19
2017-08-21 16:20:29,18.7,24.1,24,86263,34,0,21.08.17 10:20:29
2017-08-21 16:20:39,18.8,24.2,24.1,86464,34,0,21.08.17 10:20:39
2017-08-21 16:20:49,18.9,24.2,24.2,85794,33,0,21.08.17 10:20:49
2017-08-21 16:20:59,18.9,24.2,24.2,85995,33,0,21.08.17 10:20:59
2017-08-21 16:21:09,18.9,24.4,24.3,84521,33,0,21.08.17 10:21:09
2017-08-21 16:21:19,18.9,24.4,24.3,85827,33,0,21.08.17 10:21:19
2017-08-21 16:21:29,19,24.4,24.3,85325,33,0,21.08.17 10:21:29
2017-08-21 16:21:39,19.1,24.5,24.2,85157,33,0,21.08.17 10:21:39
2017-08-21 16:21:49,19.1,24.5,24.1,85827,33,0,21.08.17 10:21:49
2017-08-21 16:21:59,19,24.6,24.1,85794,35,0,21.08.17 10:21:59
2017-08-21 16:22:09,18.8,24.7,24.2,85861,36,0,21.08.17 10:22:09
2017-08-21 16:22:19,18.8,24.8,24.2,85660,37,0,21.08.17 10:22:19
2017-08-21 16:22:29,18.9,24.8,24.2,84956,36,0,21.08.17 10:22:29
2017-08-21 16:22:39,18.8,24.9,24.2,85291,35,0,21.08.17 10:22:39
2017-08-21 16:22:49,18.8,24.9,24.2,84588,35,0,21.08.17 10:22:49
2017-08-21 16:22:59,18.6,24.9,24.2,85760,36,0,21.08.17 10:22:59
2017-08-21 16:23:09,18.5,24.9,24.3,85626,36,0,21.08.17 10:23:09
2017-08-21 16:23:19,18.5,24.9,24.4,85526,36,0,21.08.17 10:23:19
2017-08-21 16:23:29,18.5,25,24.6,85526,36,0,21.08.17 10:23:29
2017-08-21 16:23:39,18.4,25,24.7,85794,36,0,21.08.17 10:23:39
2017-08-21 16:23:49,18.3,25,24.8,85693,36,0,21.08.17 10:23:49
2017-08-21 16:23:59,18.3,25,24.8,85291,36,0,21.08.17 10:23:59
2017-08-21 16:24:09,18.2,25,24.9,85325,37,0,21.08.17 10:24:09
2017-08-21 16:24:19,18.2,25,24.9,85224,37,0,21.08.17 10:24:19
2017-08-21 16:24:29,18.1,25,24.9,85224,37,0,21.08.17 10:24:29
2017-08-21 16:24:39,18,25,24.9,85057,38,0,21.08.17 10:24:39
2017-08-21 16:24:49,17.7,25,24.9,85023,39,0,21.08.17 10:24:49
2017-08-21 16:24:59,17.4,25,24.9,84956,39,0,21.08.17 10:24:59
2017-08-21 16:25:09,17.4,25,24.7,84856,39,0,21.08.17 10:25:09
2017-08-21 16:25:19,17.2,25,24.7,85023,39,0,21.08.17 10:25:19
2017-08-21 16:25:29,17.2,25.1,24.8,84889,39,0,21.08.17 10:25:29
2017-08-21 16:25:39,17.1,25.1,24.8,85057,39,0,21.08.17 10:25:39
2017-08-21 16:25:49,17.1,25,24.6,84755,39,0,21.08.17 10:25:49
2017-08-21 16:25:59,17.2,25.2,24.4,84588,39,0,21.08.17 10:25:59
2017-08-21 16:26:09,17.2,25,24.1,84387,37,0,21.08.17 10:26:09
2017-08-21 16:26:19,17.4,25,23.8,84219,36,0,21.08.17 10:26:19
2017-08-21 16:26:29,17.5,24.9,23.4,83884,36,0,21.08.17 10:26:29
2017-08-21 16:26:39,17.6,24.9,23.1,83214,38,0,21.08.17 10:26:39
2017-08-21 16:26:49,17.8,24.8,23,83683,36,0,21.08.17 10:26:49
2017-08-21 16:26:59,17.9,24.7,23,82678,36,0,21.08.17 10:26:59
2017-08-21 16:27:09,18,24.7,23.1,82243,35,0,21.08.17 10:27:09
2017-08-21 16:27:19,18.2,24.7,23.1,82678,35,0,21.08.17 10:27:19
2017-08-21 16:27:29,18.3,24.7,23.3,83047,34,0,21.08.17 10:27:29
2017-08-21 16:27:40,18.4,24.7,23.5,82846,35,0,21.08.17 10:27:40
2017-08-21 16:27:50,18.5,24.7,23.7,82544,34,0,21.08.17 10:27:50
2017-08-21 16:28:00,18.7,24.7,23.9,82678,34,0,21.08.17 10:28:00
2017-08-21 16:28:10,18.8,24.7,24.1,82812,33,0,21.08.17 10:28:10
2017-08-21 16:28:20,18.9,24.8,24.2,82611,33,0,21.08.17 10:28:20
2017-08-21 16:28:30,18.9,24.8,24.2,82410,32,0,21.08.17 10:28:30
2017-08-21 16:28:40,18.9,24.8,24.2,82310,33,0,21.08.17 10:28:40
2017-08-21 16:28:50,19,24.9,24.1,81874,34,0,21.08.17 10:28:50
2017-08-21 16:29:00,19.1,24.9,24.1,81606,34,0,21.08.17 10:29:00
2017-08-21 16:29:10,19.2,24.9,24.1,81472,33,0,21.08.17 10:29:10
2017-08-21 16:29:20,19.3,24.7,23.9,81439,32,0,21.08.17 10:29:20
2017-08-21 16:29:30,19.4,24.6,23.7,81238,32,0,21.08.17 10:29:30
2017-08-21 16:29:40,19.4,24.6,23.6,81640,33,0,21.08.17 10:29:40
2017-08-21 16:29:50,19.5,24.5,23.5,81975,32,0,21.08.17 10:29:50
2017-08-21 16:30:00,19.7,24.7,23.6,81807,32,0,21.08.17 10:30:00
2017-08-21 16:30:10,19.9,24.5,23.6,81640,32,0,21.08.17 10:30:10
2017-08-21 16:30:20,20,24.5,23.6,81941,32,0,21.08.17 10:30:20
2017-08-21 16:30:30,20,24.7,23.7,81204,33,0,21.08.17 10:30:30
2017-08-21 16:30:40,20.1,24.8,23.8,82477,33,0,21.08.17 10:30:40
2017-08-21 16:30:50,20.2,24.9,23.9,81372,32,0,21.08.17 10:30:50
2017-08-21 16:31:00,20.1,24.9,24.1,81372,34,0,21.08.17 10:31:00
2017-08-21 16:31:10,20,25,24.2,81573,34,0,21.08.17 10:31:10
2017-08-21 16:31:20,20,25,24.3,82075,35,0,21.08.17 10:31:20
2017-08-21 16:31:30,20,25.2,24.4,83449,33,0,21.08.17 10:31:30
2017-08-21 16:31:40,20.1,25.3,24.5,81070,34,0,21.08.17 10:31:40
2017-08-21 16:31:50,19.9,25.4,24.6,81137,35,0,21.08.17 10:31:50
2017-08-21 16:32:00,19.7,25.5,24.7,80936,35,0,21.08.17 10:32:00
2017-08-21 16:32:10,19.7,25.5,24.7,80534,35,0,21.08.17 10:32:10
2017-08-21 16:32:20,19.7,25.5,24.5,80601,35,0,21.08.17 10:32:20
2017-08-21 16:32:30,19.5,25.5,24.3,81305,35,0,21.08.17 10:32:30
2017-08-21 16:32:40,19.4,25.5,24.3,80970,35,0,21.08.17 10:32:40
2017-08-21 16:32:50,19.2,25.6,24.2,79898,36,0,21.08.17 10:32:50
2017-08-21 16:33:00,19,25.6,24.2,79496,36,0,21.08.17 10:33:00
2017-08-21 16:33:10,18.7,25.7,24.2,79395,37,0,21.08.17 10:33:10
2017-08-21 16:33:20,18.3,25.7,24.2,79094,37,0,21.08.17 10:33:20
2017-08-21 16:33:30,17.9,25.8,24.3,78960,39,0,21.08.17 10:33:30
2017-08-21 16:33:40,17.7,25.9,24.4,78826,38,0,21.08.17 10:33:40
2017-08-21 16:33:50,17.8,25.9,24.4,78256,38,0,21.08.17 10:33
2017-08-21 16:34:00,17.7,25.9,24.5,78156,37,0,21.08.17 10:34
2017-08-21 16:34:10,17.6,25.9,24.5,77821,37,0,21.08.17 10:34
2017-08-21 16:34:20,17.7,26,24.6,74571,37,0,21.08.17 10:34
2017-08-21 16:34:30,17.7,26,24.6,77017,37,0,21.08.17 10:34
2017-08-21 16:34:40,17.7,26.1,24.6,77452,37,0,21.08.17 10:34
2017-08-21 16:34:50,17.7,26.1,24.6,77586,36,0,21.08.17 10:34
2017-08-21 16:35:00,17.7,26.1,25,77218,36,0,21.08.17 10:35
2017-08-21 16:35:10,17.7,26,25.5,77318,36,0,21.08.17 10:35
2017-08-21 16:35:20,17.7,25.9,26.1,77151,36,0,21.08.17 10:35
2017-08-21 16:35:30,17.5,25.9,26.6,77419,37,0,21.08.17 10:35
2017-08-21 16:35:40,17.4,25.9,27,77050,37,0,21.08.17 10:35
2017-08-21 16:35:50,17.3,25.7,27.4,77050,37,0,21.08.17 10:35
2017-08-21 16:36:00,17.4,25.7,27.8,76883,38,0,21.08.17 10:36
2017-08-21 16:36:10,17.4,25.5,28.1,76983,37,0,21.08.17 10:36
2017-08-21 16:36:20,17.5,25.5,28.5,76682,37,0,21.08.17 10:36
2017-08-21 16:36:30,17.5,25.5,28.8,76380,36,0,21.08.17 10:36
2017-08-21 16:36:40,17.6,25.5,28.9,76213,36,0,21.08.17 10:36
2017-08-21 16:36:50,17.7,25.5,29.2,76146,35,0,21.08.17 10:36
2017-08-21 16:37:00,17.9,25.5,29.4,75811,36,0,21.08.17 10:37
2017-08-21 16:37:10,17.9,25.5,29.6,75744,35,0,21.08.17 10:37
2017-08-21 16:37:20,18,25.6,29.7,75576,35,0,21.08.17 10:37
2017-08-21 16:37:30,18.1,25.7,29.9,75342,34,0,21.08.17 10:37
2017-08-21 16:37:40,18.2,25.7,30,75208,35,0,21.08.17 10:37
2017-08-21 16:37:50,18.2,25.7,30.1,74772,34,0,21.08.17 10:37
2017-08-21 16:38:00,18.3,25.8,30.2,74638,34,0,21.08.17 10:38
2017-08-21 16:38:10,18.4,25.8,30.3,74571,34,0,21.08.17 10:38
2017-08-21 16:38:20,18.5,25.8,30.3,74504,35,0,21.08.17 10:38
2017-08-21 16:38:30,18.7,25.7,30.3,74337,33,0,21.08.17 10:38
2017-08-21 16:38:40,18.8,25.7,30.4,74370,33,0,21.08.17 10:38
2017-08-21 16:38:50,19,25.7,30.4,74136,33,0,21.08.17 10:38
2017-08-21 16:39:00,19.1,25.7,30.4,73834,33,0,21.08.17 10:39
2017-08-21 16:39:10,19.2,25.7,30.4,72059,33,0,21.08.17 10:39
2017-08-21 16:39:20,19.2,25.7,30.3,72863,34,0,21.08.17 10:39
2017-08-21 16:39:30,19.2,25.7,30.3,72930,34,0,21.08.17 10:39
2017-08-21 16:39:40,19.2,25.6,30.2,72762,34,0,21.08.17 10:39
2017-08-21 16:39:50,19.2,25.5,30.2,73231,34,0,21.08.17 10:39
2017-08-21 16:40:00,19.2,25.6,30.1,72930,34,0,21.08.17 10:40
2017-08-21 16:40:10,19,25.5,30.1,72628,35,0,21.08.17 10:40
2017-08-21 16:40:20,19,25.5,30,72796,36,0,21.08.17 10:40
2017-08-21 16:40:30,18.9,25.4,30,72896,35,0,21.08.17 10:40
2017-08-21 16:40:40,18.9,25.4,30,72193,35,0,21.08.17 10:40
2017-08-21 16:40:50,18.7,25.4,29.9,72126,35,0,21.08.17 10:40
2017-08-21 16:41:00,18.5,25.2,29.9,71791,35,0,21.08.17 10:41
2017-08-21 16:41:10,18.6,25.1,29.9,71690,34,0,21.08.17 10:41
2017-08-21 16:41:20,18.6,24.9,29.8,71322,34,0,21.08.17 10:41
2017-08-21 16:41:30,18.7,24.8,29.7,70384,34,0,21.08.17 10:41
2017-08-21 16:41:40,18.8,24.7,29.7,70719,34,0,21.08.17 10:41
2017-08-21 16:41:50,18.9,24.5,29.6,70216,34,0,21.08.17 10:41
2017-08-21 16:42:00,18.9,24.5,29.5,70484,34,0,21.08.17 10:42
2017-08-21 16:42:10,19,24.4,29.4,70350,34,0,21.08.17 10:42
2017-08-21 16:42:20,19.1,24.4,29.3,70216,34,0,21.08.17 10:42
2017-08-21 16:42:30,19.2,24.4,29.3,69915,32,0,21.08.17 10:42
2017-08-21 16:42:40,19.2,24.4,29.3,69881,33,0,21.08.17 10:42
2017-08-21 16:42:50,19.4,24.4,29.3,69915,32,0,21.08.17 10:42
2017-08-21 16:43:00,19.4,24.4,29.3,69178,32,0,21.08.17 10:43
2017-08-21 16:43:10,19.5,24.4,29.3,69278,33,0,21.08.17 10:43
2017-08-21 16:43:20,19.4,24.4,29.3,68910,33,0,21.08.17 10:43
2017-08-21 16:43:30,19.4,24.5,29.3,68474,34,0,21.08.17 10:43
2017-08-21 16:43:40,19.3,24.5,29.3,68340,35,0,21.08.17 10:43
2017-08-21 16:43:50,19.2,24.6,29.3,68407,35,0,21.08.17 10:43
2017-08-21 16:44:00,19,24.7,29.3,68206,35,0,21.08.17 10:44
2017-08-21 16:44:10,18.7,24.7,29.3,68005,37,0,21.08.17 10:44
2017-08-21 16:44:20,18.4,24.7,29.3,67637,37,0,21.08.17 10:44
2017-08-21 16:44:30,18.2,24.7,29.2,67503,37,0,21.08.17 10:44
2017-08-21 16:44:40,18.1,24.7,29.2,67235,37,0,21.08.17 10:44
2017-08-21 16:44:50,17.8,24.8,29.2,67503,38,0,21.08.17 10:44
2017-08-21 16:45:00,17.7,24.7,29.2,67201,37,0,21.08.17 10:45
2017-08-21 16:45:10,17.6,24.8,29.2,66498,37,0,21.08.17 10:45
2017-08-21 16:45:20,17.6,24.8,29.1,66833,37,0,21.08.17 10:45
2017-08-21 16:45:30,17.6,24.9,29.1,66498,37,0,21.08.17 10:45
2017-08-21 16:45:40,17.6,24.9,29.1,66297,36,0,21.08.17 10:45
2017-08-21 16:45:50,17.7,24.9,29.1,66297,36,0,21.08.17 10:45
2017-08-21 16:46:00,17.7,25,29,66163,36,0,21.08.17 10:46
2017-08-21 16:46:10,17.7,25,29,66196,36,0,21.08.17 10:46
2017-08-21 16:46:20,17.7,25,29,66029,37,0,21.08.17 10:46
2017-08-21 16:46:30,17.7,25,29,65761,36,0,21.08.17 10:46
2017-08-21 16:46:40,17.7,25.1,29,65593,37,0,21.08.17 10:46
2017-08-21 16:46:50,17.8,25.2,28.9,65426,36,0,21.08.17 10:46
2017-08-21 16:47:00,17.7,25.2,28.9,65124,36,0,21.08.17 10:47
2017-08-21 16:47:10,17.7,25.2,28.9,64990,37,0,21.08.17 10:47
2017-08-21 16:47:20,17.7,25.2,28.9,64789,37,0,21.08.17 10:47
2017-08-21 16:47:30,17.5,25.2,28.8,64890,37,0,21.08.17 10:47
2017-08-21 16:47:40,17.4,25.2,28.7,64588,37,0,21.08.17 10:47
2017-08-21 16:47:50,17.3,25,28.6,64354,38,0,21.08.17 10:47
2017-08-21 16:48:00,17.2,25,28.5,64052,38,0,21.08.17 10:48
2017-08-21 16:48:10,17.2,24.8,28.4,63684,38,0,21.08.17 10:48
2017-08-21 16:48:20,17,24.7,28.3,63617,37,0,21.08.17 10:48
2017-08-21 16:48:30,17,24.6,28.2,63081,38,0,21.08.17 10:48
2017-08-21 16:48:40,17,24.5,28.2,63014,38,0,21.08.17 10:48
2017-08-21 16:48:50,17,24.4,28.1,62980,37,0,21.08.17 10:48
2017-08-21 16:49:00,17,24.3,28,62612,36,0,21.08.17 10:49
2017-08-21 16:49:10,17.2,24.2,27.9,62444,36,0,21.08.17 10:49
2017-08-21 16:49:20,17.2,24,27.9,62344,36,0,21.08.17 10:49
2017-08-21 16:49:30,17.4,24,27.8,61573,36,0,21.08.17 10:49
2017-08-21 16:49:40,17.4,23.9,27.8,61406,36,0,21.08.17 10:49
2017-08-21 16:49:50,17.2,23.8,27.6,61473,37,0,21.08.17 10:49
2017-08-21 16:50:00,17.2,23.7,27.6,61171,37,0,21.08.17 10:50
2017-08-21 16:50:10,17.3,23.6,27.5,61004,37,0,21.08.17 10:50
2017-08-21 16:50:20,17.3,23.5,27.5,60870,37,0,21.08.17 10:50
2017-08-21 16:50:30,17.4,23.4,27.4,60702,36,0,21.08.17 10:50
2017-08-21 16:50:40,17.4,23.4,27.4,60334,36,0,21.08.17 10:50
2017-08-21 16:50:50,17.4,23.2,27.4,60300,36,0,21.08.17 10:50
2017-08-21 16:51:00,17.5,23.2,27.3,60099,35,0,21.08.17 10:51
2017-08-21 16:51:10,17.7,23,27.3,59932,35,0,21.08.17 10:51
2017-08-21 16:51:20,17.8,22.9,27.2,60032,35,0,21.08.17 10:51
2017-08-21 16:51:30,18,22.9,27.2,59530,34,0,21.08.17 10:51
2017-08-21 16:51:40,18,22.9,27.2,59396,35,0,21.08.17 10:51
2017-08-21 16:51:50,18,23,27.2,59195,35,0,21.08.17 10:51
2017-08-21 16:52:00,18.1,23,27.2,59262,35,0,21.08.17 10:52
2017-08-21 16:52:10,18.2,23.1,27.2,58994,35,0,21.08.17 10:52
2017-08-21 16:52:20,18.2,23.2,27.2,58592,36,0,21.08.17 10:52
2017-08-21 16:52:30,18.2,23.3,27.2,58190,36,0,21.08.17 10:52
2017-08-21 16:52:40,18.1,23.3,27.2,57888,36,0,21.08.17 10:52
2017-08-21 16:52:50,18.1,23.4,27.2,57754,36,0,21.08.17 10:52
2017-08-21 16:53:00,18.2,23.4,27.2,57453,36,0,21.08.17 10:53
2017-08-21 16:53:10,18.1,23.4,27.1,57051,36,0,21.08.17 10:53
2017-08-21 16:53:20,18,23.5,27.1,56280,36,0,21.08.17 10:53
2017-08-21 16:53:30,18,23.4,27,56917,35,0,21.08.17 10:53
2017-08-21 16:53:40,18,23.4,26.9,56347,35,0,21.08.17 10:53
2017-08-21 16:53:50,18.1,23.4,26.9,55811,36,0,21.08.17 10:53
2017-08-21 16:54:00,18.2,23.4,26.8,55677,35,0,21.08.17 10:54
2017-08-21 16:54:10,18.2,23.4,26.8,55409,35,0,21.08.17 10:54
2017-08-21 16:54:20,18.2,23.3,26.7,55141,35,0,21.08.17 10:54
2017-08-21 16:54:30,18.2,23.3,26.6,55074,35,0,21.08.17 10:54
2017-08-21 16:54:40,18.1,23.2,26.5,54940,36,0,21.08.17 10:54
2017-08-21 16:54:50,18,23.1,26.4,54907,36,0,21.08.17 10:54
2017-08-21 16:55:00,18,23,26.2,54538,36,0,21.08.17 10:55
2017-08-21 16:55:10,18,22.9,26.1,54471,36,0,21.08.17 10:55
2017-08-21 16:55:20,18,22.8,26,53868,35,0,21.08.17 10:55
2017-08-21 16:55:30,18,22.7,25.9,55108,36,0,21.08.17 10:55
2017-08-21 16:55:40,18,22.6,25.8,54002,35,0,21.08.17 10:55
2017-08-21 16:55:50,18,22.5,25.7,54840,34,0,21.08.17 10:55
2017-08-21 16:56:00,18,22.5,25.7,53533,35,0,21.08.17 10:56
2017-08-21 16:56:10,18,22.4,25.6,53031,35,0,21.08.17 10:56
2017-08-21 16:56:20,18,22.4,25.6,52729,35,0,21.08.17 10:56
2017-08-21 16:56:30,18,22.4,25.6,52796,35,0,21.08.17 10:56
2017-08-21 16:56:40,17.9,22.4,25.6,52595,35,0,21.08.17 10:56
2017-08-21 16:56:50,17.7,22.3,25.6,52126,36,0,21.08.17 10:56
2017-08-21 16:57:00,17.5,22.4,25.6,52193,36,0,21.08.17 10:57
2017-08-21 16:57:10,17.4,22.2,25.6,51691,37,0,21.08.17 10:57
2017-08-21 16:57:20,17.3,22.2,25.6,51490,37,0,21.08.17 10:57
2017-08-21 16:57:30,17.2,22.2,25.6,51188,37,0,21.08.17 10:57
2017-08-21 16:57:40,17.1,22.2,25.6,50887,37,0,21.08.17 10:57
2017-08-21 16:57:50,17.1,22.2,25.6,50853,36,0,21.08.17 10:57
2017-08-21 16:58:00,17,22.2,25.5,50418,37,0,21.08.17 10:58
2017-08-21 16:58:10,17,22.2,25.5,50150,37,0,21.08.17 10:58
2017-08-21 16:58:20,16.9,22.2,25.5,49915,37,0,21.08.17 10:58
2017-08-21 16:58:30,17,22.3,25.5,50049,37,0,21.08.17 10:58
2017-08-21 16:58:40,17,22.4,25.5,49781,36,0,21.08.17 10:58
2017-08-21 16:58:50,17,22.4,25.5,49513,36,0,21.08.17 10:58
2017-08-21 16:59:00,17,22.4,25.5,49312,36,0,21.08.17 10:59
2017-08-21 16:59:10,17,22.5,25.5,48877,37,0,21.08.17 10:59
2017-08-21 16:59:20,16.9,22.5,25.5,48575,37,0,21.08.17 10:59
2017-08-21 16:59:30,16.9,22.6,25.5,48207,37,0,21.08.17 10:59
2017-08-21 16:59:40,16.9,22.6,25.5,47972,37,0,21.08.17 10:59
2017-08-21 16:59:50,16.8,22.7,25.5,47905,37,0,21.08.17 10:59
2017-08-21 17:00:00,16.7,22.7,25.4,47738,37,0,21.08.17 11:00
2017-08-21 17:00:10,16.7,22.7,25.4,47403,37,0,21.08.17 11:00
2017-08-21 17:00:20,16.6,22.7,25.4,47202,37,0,21.08.17 11:00
2017-08-21 17:00:30,16.5,22.8,25.4,47001,38,0,21.08.17 11:00
2017-08-21 17:00:40,16.5,22.8,25.4,46867,38,0,21.08.17 11:00
2017-08-21 17:00:50,16.5,22.8,25.3,46632,38,0,21.08.17 11:00
2017-08-21 17:01:00,16.4,22.8,25.3,46230,38,0,21.08.17 11:01
2017-08-21 17:01:10,16.3,22.9,25.3,45862,38,0,21.08.17 11:01
2017-08-21 17:01:20,16.2,22.9,25.2,45761,38,0,21.08.17 11:01
2017-08-21 17:01:30,16.2,22.9,25.2,45560,38,0,21.08.17 11:01
2017-08-21 17:01:40,16.2,22.9,25.2,45460,38,0,21.08.17 11:01
2017-08-21 17:01:50,16.3,22.9,25.2,44890,38,0,21.08.17 11:01
2017-08-21 17:02:00,16.4,22.9,25.1,44823,37,0,21.08.17 11:02
2017-08-21 17:02:10,16.4,23,25.1,44555,37,0,21.08.17 11:02
2017-08-21 17:02:20,16.5,23,25.1,44354,37,0,21.08.17 11:02
2017-08-21 17:02:30,16.5,23,25.1,44120,37,0,21.08.17 11:02
2017-08-21 17:02:40,16.5,23,25,43952,37,0,21.08.17 11:02
2017-08-21 17:02:50,16.5,23,25,43751,37,0,21.08.17 11:02
2017-08-21 17:03:00,16.4,23,25,43450,38,0,21.08.17 11:03
2017-08-21 17:03:10,16.4,22.9,24.9,43048,37,0,21.08.17 11:03
2017-08-21 17:03:20,16.4,22.9,24.9,42679,37,0,21.08.17 11:03
2017-08-21 17:03:30,16.4,22.9,24.9,42344,38,0,21.08.17 11:03
2017-08-21 17:03:40,16.5,22.9,24.8,42244,37,0,21.08.17 11:03
2017-08-21 17:03:50,16.5,22.9,24.8,41942,37,0,21.08.17 11:03
2017-08-21 17:04:00,16.5,22.7,24.7,41741,37,0,21.08.17 11:04
2017-08-21 17:04:10,16.4,22.7,24.7,41339,37,0,21.08.17 11:04
2017-08-21 17:04:20,16.4,22.7,24.7,41138,38,0,21.08.17 11:04
2017-08-21 17:04:30,16.4,22.7,24.6,40971,37,0,21.08.17 11:04
2017-08-21 17:04:40,16.4,22.7,24.6,40803,38,0,21.08.17 11:04
2017-08-21 17:04:50,16.4,22.6,24.6,40535,37,0,21.08.17 11:04
2017-08-21 17:05:00,16.5,22.6,24.5,39999,37,0,21.08.17 11:05
2017-08-21 17:05:10,16.5,22.5,24.5,39765,37,0,21.08.17 11:05
2017-08-21 17:05:20,16.6,22.5,24.4,39463,36,0,21.08.17 11:05
2017-08-21 17:05:30,16.6,22.4,24.3,39128,37,0,21.08.17 11:05
2017-08-21 17:05:40,16.7,22.3,24.2,39128,37,0,21.08.17 11:05
2017-08-21 17:05:50,16.7,22.2,24,38827,37,0,21.08.17 11:05
2017-08-21 17:06:00,16.7,22,23.9,38525,37,0,21.08.17 11:06
2017-08-21 17:06:10,16.7,22,23.8,38458,36,0,21.08.17 11:06
2017-08-21 17:06:20,16.7,21.9,23.8,38291,36,0,21.08.17 11:06
2017-08-21 17:06:30,16.8,21.9,23.8,38157,37,0,21.08.17 11:06
2017-08-21 17:06:40,16.8,21.7,23.8,37688,37,0,21.08.17 11:06
2017-08-21 17:06:50,16.8,21.5,23.7,37286,37,0,21.08.17 11:06
2017-08-21 17:07:00,16.9,21.5,23.7,37286,36,0,21.08.17 11:07
2017-08-21 17:07:10,16.9,21.4,23.7,36817,36,0,21.08.17 11:07
2017-08-21 17:07:20,17,21.4,23.6,36482,36,0,21.08.17 11:07
2017-08-21 17:07:30,17,21.4,23.6,36247,36,0,21.08.17 11:07
2017-08-21 17:07:40,17,21.4,23.6,36013,35,0,21.08.17 11:07
2017-08-21 17:07:50,17.1,21.4,23.6,35946,36,0,21.08.17 11:07
2017-08-21 17:08:00,17.1,21.4,23.6,35845,36,0,21.08.17 11:08